This demonstration page uses our WeatherBlox Daily Observations layout. Learn more.

Left ArrowRight Arrow

34.02893, -84.19858

Hourly Observations for December 5, 2022

Temp ( °F °C ) Dew Point ( °F °C ) Humidity (%) Winds ( mph kmh ) Pressure ( in mb ) Visibility ( mi km ) Precip ( " mm )
12:53 am 00:53 Cloudy 50 10 38 3.3 63 63 N 3 6 30.13 1020 10 16 0.00 0.00
1:53 am 01:53 Cloudy 49 9.4 39 3.9 68 68 Calm 30.11 1020 10 16 0.00 0.00
2:53 am 02:53 Cloudy 49 9.4 39 3.9 68 68 N 3 6 30.11 1020 10 16 0.00 0.00
3:53 am 03:53 Cloudy 49 9.4 39 3.9 68 68 Calm 30.10 1019 10 16 0.00 0.00
4:53 am 04:53 Cloudy 49 9.4 40 4.4 71 71 Calm 30.10 1019 10 16 0.00 0.00
5:53 am 05:53 Cloudy 49 9.4 41 5 74 74 Calm 30.11 1020 10 16 0.00 0.00
6:53 am 06:53 Cloudy 50 10 44 6.7 80 80 Calm 30.12 1020 10 16 0.00 0.00
7:53 am 07:53 Cloudy with Light Rain 49 9.4 45 7.2 86 86 VRB 3 6 30.13 1020 9 14 0.01 0.13
8:53 am 08:53 Cloudy with Light Rain 50 10 47 8.3 89 89 VRB 5 7 30.14 1021 8 13 0.01 0.13
9:08 am 09:08 Cloudy with Light Rain 50 10 47 8.3 89 89 Calm 30.15 1021 5 8 0.01 0.25
9:53 am 09:53 Cloudy with Light Rain 50 10 48 8.9 93 93 VRB 5 7 30.16 1021 5 8 0.03 0.76
10:53 am 10:53 Cloudy with Light Rain 49 9.4 48 8.9 97 97 VRB 6 9 30.15 1021 4 6 0.08 2.03
11:00 am 11:00 Cloudy with Light Rain 49 9.4 47 8.3 93 93 VRB 5 7 30.15 1021 5 8 0.01 0.13
11:09 am 11:09 Cloudy with Light Rain 49 9.4 47 8.3 93 93 E 6 9 30.15 1021 4 6 0.01 0.25
11:53 am 11:53 Cloudy with Light Rain 47 8.3 46 7.8 97 97 E 5 7 30.14 1021 6 10 0.04 1.02
12:45 pm 12:45 Cloudy with Light Rain 47 8.3 45 7.2 93 93 VRB 5 7 30.12 1020 2 3 0.01 0.25
12:53 pm 12:53 Cloudy with Light Rain 47 8.3 46 7.8 97 97 VRB 3 6 30.11 1020 2 3 0.01 0.25
1:14 pm 13:14 Cloudy with Light Rain 47 8.3 46 7.8 97 97 VRB 5 7 30.11 1020 2 3 0.01 0.25
1:37 pm 13:37 Cloudy with Light Rain 47 8.3 45 7.2 93 93 VRB 5 7 30.10 1019 2 3 0.02 0.51
1:53 pm 13:53 Cloudy with Light Rain 46 7.8 45 7.2 96 96 VRB 7 11 30.11 1020 2 3 0.03 0.76
2:03 pm 14:03 Cloudy with Rain 46 7.8 44 6.7 93 93 VRB 6 9 30.11 1020 2 3 0.03 0.76
2:18 pm 14:18 Cloudy with Rain 46 7.8 44 6.7 93 93 VRB 6 9 30.11 1020 2 3 0.07 1.78
2:34 pm 14:34 Cloudy with Rain 45 7.2 44 6.7 97 97 NE 7 11 30.11 1020 2 3 0.14 3.56
2:53 pm 14:53 Cloudy with Rain 45 7.2 43 6.1 93 93 ENE 5 7 30.10 1019 2 3 0.22 5.59
3:14 pm 15:14 Cloudy with Light Rain 45 7.2 43 6.1 93 93 VRB 6 9 30.10 1019 3 5 0.08 2.03
3:53 pm 15:53 Cloudy with Rain 44 6.7 43 6.1 96 96 Calm 30.10 1019 3 5 0.20 5.08
4:01 pm 16:01 Cloudy with Light Rain 44 6.7 43 6.1 96 96 undefined N/A 30.11 1020 3 5 0.02 0.51
4:53 pm 16:53 Cloudy with Light Rain 44 6.7 43 6.1 96 96 VRB 5 7 30.10 1019 5 8 0.12 3.05
5:39 pm 17:39 Cloudy with Heavy Rain 45 7.2 44 6.7 97 97 VRB 3 6 30.10 1019 3 4 0.13 3.30
5:49 pm 17:49 Cloudy with Light Rain 45 7 45 7 100 100 E 3 6 30.10 1019 4 6 0.16 4.06
5:53 pm 17:53 Cloudy with Light Rain 45 7.2 44 6.7 97 97 VRB 5 7 30.10 1019 5 8 0.16 4.06
6:53 pm 18:53 Cloudy with Light Rain 45 7.2 44 6.7 97 97 VRB 3 6 30.11 1020 8 13 0.11 2.79
7:53 pm 19:53 Cloudy with Rain 45 7.2 44 6.7 97 97 undefined N/A 30.14 1021 3 5 0.19 4.83
8:53 pm 20:53 Cloudy with Light Rain 45 7.2 44 6.7 97 97 VRB 3 6 30.14 1021 8 13 0.04 1.02
9:38 pm 21:38 Cloudy with Rain 45 7.2 44 6.7 97 97 VRB 3 6 30.13 1020 4 6 0.11 2.79
9:51 pm 21:51 Cloudy with Light Rain 45 7 45 7 100 100 VRB 5 7 30.13 1020 6 10 0.13 3.30
9:53 pm 21:53 Cloudy with Light Rain 45 7.2 44 6.7 97 97 Calm 30.13 1020 7 11 0.13 3.30
10:53 pm 22:53 Cloudy with Light Rain 46 7.8 45 7.2 96 96 undefined N/A 30.14 1021 4 6 0.03 0.76
11:12 pm 23:12 Cloudy with Rain 45 7.2 44 6.7 97 97 Calm 30.14 1021 3 4 0.07 1.78
11:46 pm 23:46 Cloudy with Light Rain 45 7.2 44 6.7 97 97 VRB 5 7 30.12 1020 3 5 0.14 3.56
11:53 pm 23:53 Cloudy with Light Rain 45 7.2 44 6.7 97 97 E 5 7 30.13 1020 4 6 0.15 3.81

Powered by AerisWeather